Probability
58 60 59 44 22 8 3 1 0 0 0 0 0 0 0 0 0 0 0 0 0 0 0 0 0 0 0 0 0 0 0 0 0 0 0 0 0 0 0 0 0 0 0
70 69 65 51 30 13 3 1 1 0 0 0 0 0 0 0 0 0 0 0 0 0 0 0 0 0 0 0 0 0 0 0 0 0 0 0 0 0 0 0 0 0 0
79 74 69 61 44 22 7 2 1 0 0 0 0 0 0 0 0 0 0 0 0 0 0 0 0 0 0 0 0 0 0 0 0 0 0 0 0 0 0 0 0 0 0
76 72 71 70 58 38 18 6 2 1 0 0 0 1 1 0 0 0 0 0 0 0 0 0 0 0 0 0 0 0 0 0 0 0 0 0 0 0 0 0 0 0 0
70 72 77 79 72 58 37 17 8 6 4 2 2 4 3 1 0 0 0 0 0 0 0 0 0 0 0 0 0 0 0 0 0 0 0 0 0 0 0 0 0 0 0
68 74 82 85 83 74 58 39 25 19 14 8 6 6 5 3 2 0 0 0 0 0 0 0 0 0 0 0 0 0 0 0 0 0 0 0 0 0 0 0 0 0 0
71 76 83 86 86 83 75 61 46 39 32 22 14 11 9 8 5 2 1 1 0 0 0 0 0 0 0 0 0 0 0 0 0 0 0 0 0 0 0 0 0 0 0
72 78 83 85 84 82 79 73 64 56 48 40 30 22 16 13 8 4 2 2 1 0 0 0 0 0 0 0 0 0 0 0 0 0 0 0 0 0 0 0 0 0 0
71 76 81 80 77 74 74 75 72 65 58 51 43 31 21 14 9 4 3 2 1 0 0 0 0 0 0 0 0 0 0 0 0 0 0 0 0 0 0 0 0 0 0
72 74 74 71 68 64 63 68 71 68 61 51 39 28 19 12 7 3 2 2 1 0 0 0 0 0 0 0 0 0 0 0 0 0 0 0 0 0 0 0 0 0 0
74 70 61 56 56 52 52 60 64 60 53 41 27 18 14 7 3 2 3 5 2 0 0 0 0 0 0 0 0 0 0 0 0 0 0 1 1 1 1 0 0 0 0
72 63 48 44 47 44 47 59 57 47 39 28 17 12 8 4 3 6 12 14 6 0 0 0 0 0 0 0 0 0 0 0 0 0 2 4 3 2 2 1 0 0 0
69 59 46 45 47 45 52 62 54 44 37 26 20 19 11 4 6 15 24 21 9 2 1 1 0 0 0 0 0 0 0 0 0 1 4 7 6 3 2 1 1 1 1
72 63 53 54 54 53 61 65 54 48 45 38 38 36 22 10 12 23 30 22 9 3 2 2 1 0 1 1 0 0 0 1 1 1 6 10 10 7 6 5 4 4 4
79 72 63 62 63 63 68 69 58 54 51 51 55 50 33 20 20 31 35 25 11 6 7 5 2 1 3 4 3 2 3 4 5 6 8 12 15 14 11 9 9 8 7
83 78 72 70 70 71 73 72 65 60 59 61 63 57 41 32 35 42 43 33 19 17 20 16 10 9 10 10 7 5 7 10 11 13 12 13 16 14 11 9 8 8 8
82 80 78 75 74 74 74 73 68 66 66 68 67 62 51 46 50 54 51 42 32 33 38 34 25 22 23 20 14 11 11 13 17 19 16 12 10 7 5 4 4 5 7
80 81 79 77 77 76 75 74 71 69 69 70 68 64 55 50 55 59 55 49 45 45 45 41 34 32 32 27 20 15 15 16 18 19 15 11 7 5 3 1 1 3 6
76 77 76 77 78 76 74 74 72 69 68 68 64 60 53 49 51 56 56 55 55 52 45 39 37 37 34 28 18 14 15 17 16 15 14 11 9 8 5 2 1 1 2
73 73 73 75 76 74 71 70 70 67 63 61 57 54 53 50 50 52 55 57 58 55 46 40 37 34 30 24 13 9 12 13 12 12 12 10 9 8 5 3 2 1 1
71 72 72 72 72 70 65 63 64 61 54 51 49 50 52 52 50 49 52 56 58 56 49 41 35 29 24 20 13 7 7 8 8 8 8 8 7 5 4 4 3 2 2
67 68 69 68 66 64 59 54 53 50 43 39 38 40 43 46 46 45 46 51 54 52 46 40 34 27 20 16 13 8 5 4 3 4 4 5 4 3 3 2 1 1 1
58 60 62 61 61 59 53 46 41 37 32 27 26 27 30 33 36 36 35 38 41 40 36 34 31 25 17 12 10 7 4 3 1 1 1 2 1 1 1 1 0 0 0
48 50 53 55 56 56 50 43 36 29 23 19 18 18 19 20 22 22 22 23 25 25 24 21 20 18 14 9 7 5 5 3 1 0 0 0 0 0 0 0 0 0 0
40 42 44 48 51 51 49 45 38 28 18 14 11 12 12 12 12 12 12 13 13 14 14 12 12 13 12 9 6 5 5 4 2 0 0 0 0 0 0 0 0 0 0
37 37 39 42 45 47 47 45 40 28 17 10 7 7 8 9 9 9 8 8 8 9 9 10 10 11 11 9 7 5 4 4 2 1 0 0 0 0 0 0 0 0 0
Wind_Speed
18 18 18 17 17 16 16 16 15 14 13 13 12 12 12 13 12 12 13 12 11 11 11 10 9 9 9 10 11 12 12 13 13 14 15 14 13 11 10 9 9 11 12
20 19 18 17 17 17 16 16 15 14 14 13 12 12 12 12 12 12 12 11 11 11 11 10 10 10 10 10 11 11 11 11 11 12 13 12 11 10 8 7 9 10 11
20 18 18 17 17 17 17 16 15 15 14 13 13 12 12 12 11 11 11 11 11 11 11 11 10 10 10 10 10 9 9 9 8 9 10 8 9 9 9 11 14 12 10
20 17 16 17 17 18 17 17 16 16 15 14 13 13 12 11 11 11 10 10 10 10 10 10 10 10 10 9 9 8 7 6 6 6 4 5 8 10 8 10 10 10 9
18 17 17 17 17 17 17 17 17 16 15 15 14 13 12 12 11 10 10 10 10 10 10 10 10 10 9 8 8 7 5 3 3 6 3 5 8 10 9 8 8 8 7
18 18 18 17 17 17 17 17 17 16 16 15 14 13 12 11 11 10 10 10 10 10 10 10 10 9 8 8 7 5 3 2 5 4 2 6 9 10 9 8 7 6 6
17 17 17 16 16 16 17 17 16 16 15 14 14 13 12 11 10 10 10 10 10 9 9 9 9 8 7 7 5 3 1 4 6 4 1 6 10 12 10 8 7 6 5
17 18 16 17 17 16 16 16 15 15 15 14 13 13 12 11 10 10 10 10 9 9 9 9 9 8 7 6 4 1 2 6 6 3 3 7 12 12 10 8 6 5 5
17 18 15 15 15 15 15 16 15 15 14 14 13 13 12 12 11 11 10 10 9 9 9 9 8 8 6 5 3 2 4 6 8 3 3 6 12 12 10 8 7 6 5
15 17 15 15 14 13 13 15 16 15 14 14 14 13 13 12 12 11 11 10 10 10 9 9 8 7 6 5 4 4 5 7 8 2 3 7 12 12 10 8 7 7 6
14 15 15 16 14 13 13 14 14 14 14 14 13 13 12 10 10 10 11 12 11 10 10 9 8 8 7 7 7 7 6 5 5 1 3 11 12 11 9 7 7 7 7
15 16 15 16 16 15 12 12 10 10 10 10 10 11 9 8 8 10 13 14 12 11 10 10 9 8 7 6 8 8 5 6 4 2 5 12 11 10 8 7 6 7 7
16 16 17 16 15 13 9 10 7 7 8 9 10 10 8 6 6 7 7 8 8 10 8 8 8 7 7 5 5 6 6 3 1 3 7 10 9 8 7 6 5 5 6
15 16 15 15 13 11 10 9 7 7 7 7 7 9 7 4 5 6 5 7 7 6 6 7 6 7 6 4 3 4 2 1 1 3 6 9 7 6 5 4 3 4 4
11 12 12 12 11 7 7 7 7 5 7 7 6 7 6 4 4 4 5 5 6 6 6 5 5 4 3 2 2 2 0 2 3 5 5 8 8 6 5 4 2 1 1
7 10 9 9 9 8 6 5 5 5 5 6 5 7 6 4 2 2 3 3 3 3 4 3 3 3 2 1 1 2 3 3 4 5 6 7 10 9 8 7 5 3 3
6 6 7 7 7 7 8 7 5 5 5 4 4 5 4 2 2 2 2 2 1 1 2 2 2 2 2 1 1 2 4 4 5 6 6 5 6 11 12 11 10 9 8
4 5 6 8 8 7 5 5 3 2 3 3 3 3 3 2 2 1 2 2 1 1 1 2 1 2 2 2 2 3 3 3 5 6 6 5 5 6 9 13 12 12 12
5 5 6 5 7 7 5 4 2 2 2 3 3 3 3 2 3 3 2 1 1 1 1 1 2 2 2 2 3 3 3 5 5 6 6 7 6 6 6 10 13 14 14
6 5 4 4 4 4 4 3 2 3 3 3 3 3 3 2 3 3 2 2 2 2 1 1 2 2 2 2 3 4 5 4 4 5 6 6 6 7 6 7 6 10 16
6 5 3 4 4 3 2 3 3 2 3 3 2 3 2 2 2 2 2 3 3 2 3 3 2 3 3 3 3 3 4 5 5 4 5 5 6 7 7 7 6 5 7
5 5 4 4 4 4 2 1 2 3 3 3 3 3 3 2 2 3 2 2 2 2 2 2 2 2 2 2 2 3 3 2 4 5 4 5 5 5 7 8 7 6 5
5 3 3 3 4 5 5 2 3 3 3 2 3 3 4 4 4 4 4 3 2 2 2 2 2 2 2 1 1 1 2 3 3 3 5 5 5 5 5 5 6 6 6
5 4 4 3 3 4 5 5 6 4 4 3 3 4 6 7 6 6 5 5 4 4 3 3 3 2 2 2 2 2 2 3 4 4 3 3 4 5 4 4 5 4 5
6 6 5 5 4 4 4 6 6 7 6 5 5 7 6 7 8 7 7 7 6 6 6 6 6 5 4 3 2 2 2 2 3 3 4 3 3 3 3 3 2 3 3
7 6 6 6 5 5 5 6 7 10 10 9 7 7 6 5 6 8 8 7 7 6 7 7 7 8 6 6 5 4 3 3 2 2 3 4 4 2 2 2 2 1 2
Wind_Direction
127 133 137 139 141 142 141 139 137 134 131 127 123 118 113 108 105 102 99 98 100 104 106 106 105 99 92 87 86 88 90 92 93 93 93 93 95 97 99 105 111 96 99
130 134 137 140 144 145 145 143 141 139 137 134 130 127 122 118 114 109 105 104 104 106 106 107 107 105 101 98 97 97 98 101 103 107 110 106 102 98 87 71 88 106 105
129 136 139 141 145 146 147 145 144 142 141 139 136 133 129 125 121 117 113 110 108 109 110 110 110 110 108 108 108 108 110 115 122 132 142 127 114 104 90 85 96 107 107
133 142 143 142 146 148 149 148 147 146 146 144 141 138 135 132 129 124 120 117 114 113 113 113 114 115 115 115 116 119 124 134 147 170 191 136 129 117 105 102 105 108 110
138 143 137 146 147 149 151 152 151 150 149 148 146 144 141 138 134 130 127 124 122 120 119 118 117 120 122 122 122 127 139 164 198 227 224 122 111 129 122 117 117 117 117
143 140 142 147 147 150 152 154 155 153 151 151 150 148 146 143 140 138 135 132 130 128 126 123 121 123 124 124 126 133 158 227 260 241 227 131 122 139 137 136 133 130 131
144 140 145 146 147 149 152 154 155 153 152 152 152 151 148 145 144 143 141 139 138 136 133 130 127 124 123 123 126 137 223 277 266 273 210 123 131 145 148 150 149 146 148
142 138 143 147 148 150 153 154 155 153 153 154 153 153 151 150 150 149 148 148 147 145 140 136 135 133 130 131 133 159 275 292 283 283 138 120 140 150 153 157 159 163 172
142 139 148 153 152 153 154 154 154 153 154 154 154 155 156 157 158 158 156 156 154 151 149 145 145 144 144 150 163 218 276 293 293 279 132 126 146 151 155 163 173 181 190
147 145 154 158 156 158 158 158 157 156 156 157 159 162 162 164 167 166 164 164 163 161 160 158 158 160 165 175 195 229 264 288 268 282 103 134 151 152 158 170 184 195 202
151 148 159 161 162 165 164 161 160 160 160 161 166 169 169 176 176 177 177 165 171 172 171 171 175 179 186 199 214 229 250 256 257 131 114 146 154 154 161 175 192 201 208
161 159 165 167 168 172 169 158 166 171 166 177 174 174 189 194 186 182 163 167 176 179 180 185 190 195 211 209 212 221 240 239 249 152 140 148 149 154 162 177 195 207 216
169 168 170 171 170 174 163 160 171 177 168 191 181 180 198 198 184 163 158 166 177 184 191 186 196 212 213 218 195 198 224 239 197 109 127 142 145 156 165 182 199 210 220
175 175 170 168 168 173 160 161 172 181 167 187 177 182 195 200 196 163 167 173 181 190 196 180 204 209 214 212 206 209 223 196 102 99 122 128 128 137 151 169 190 208 220
169 170 168 164 163 163 147 160 173 185 172 182 174 187 192 199 201 170 174 176 189 185 186 187 199 189 192 205 228 213 197 53 65 82 104 105 102 98 98 99 99 128 222
166 172 161 156 157 155 150 161 167 189 173 175 169 186 196 201 194 171 160 170 196 170 167 176 169 149 137 85 24 21 42 50 67 90 102 98 89 83 76 72 68 62 60
167 156 145 157 166 163 164 170 177 187 163 163 157 171 182 194 158 177 139 165 220 140 127 122 128 109 127 124 77 52 51 44 48 68 87 94 89 77 74 71 68 67 68
131 146 150 169 170 164 164 168 177 175 148 135 126 130 171 189 150 154 142 166 178 75 80 102 97 103 93 84 72 59 65 60 59 65 70 73 80 86 75 74 70 68 67
120 141 148 155 158 160 162 155 163 117 107 112 110 123 159 194 177 162 158 128 139 119 104 178 135 130 122 108 94 80 68 65 61 69 74 70 71 79 81 78 72 67 65
106 118 126 127 131 146 157 152 140 108 91 90 100 130 153 182 190 159 156 154 151 145 138 115 119 124 123 115 99 83 72 70 60 60 71 75 71 74 74 75 72 67 65
89 102 115 133 130 134 153 161 160 135 100 90 85 97 142 167 162 157 163 154 153 151 155 148 138 136 131 127 116 99 75 70 70 65 65 72 75 74 72 69 66 67 67
89 103 115 118 122 117 118 151 138 123 106 101 88 77 76 94 118 142 127 128 153 145 142 150 145 142 129 129 136 143 139 104 60 56 64 69 69 70 74 75 72 68 69
66 88 108 105 122 133 133 134 118 102 95 90 80 68 58 65 69 76 92 99 100 119 126 121 109 124 145 128 90 132 149 149 117 68 60 63 65 64 71 81 77 75 78
56 66 72 96 107 125 138 144 142 135 125 100 86 74 61 59 61 65 71 76 76 76 75 77 72 87 117 135 111 74 85 109 131 127 99 85 82 73 66 71 80 81 84
45 57 57 66 69 86 120 138 138 124 111 102 96 85 73 63 60 62 65 67 70 69 67 64 64 65 62 65 76 85 84 81 89 126 135 135 103 85 86 88 96 96 100
40 49 52 67 64 69 86 109 120 120 117 113 105 96 82 72 67 64 66 68 69 71 69 68 70 70 68 64 60 59 64 70 76 101 126 140 128 116 103 92 91 87 107